STARLINK-2569 (48277 NORAD) Tracking and Keplerian Element Data

This shows tracking and keplerian element data for the satellite.

Feedback or suggestion? Click here.




ElementValue
Catalog48277
NameSTARLINK-2569
Epoch Orbit1526
Epoch Day211.25001157
Epoch Year2021
RAAN71.4137
Inclination53.0501
Eccentricity0.0001882
Argument of Perigee25.1622
Mean Anonmoly340.0332
Mean Motion15.7320211
Decay Rate1.647E-05
L11 48277U 21036B 21211.25001157 .00001647 00000-0 16156-4 0 9999
L22 48277 53.0501 71.4137 0001882 25.1622 340.0332 15.73202110 15265

Live tracking and technical data element details for STARLINK-2569 (NORAD 48277). STARLINK-2569 can be tracked NOW for your location showing map with azimuth and elevation plus other details from your city location.

Track the satellite on the map from your city or location and see movement details for azimuth, elevation, latitude, longitude, range, height, and movement on the map or in text.







IsCatalogInMostPopularTable: catalog: 48277, numindb: 36
Update: records affected: 1



GetName: 48277 STARLINK-2569

Hit Count: updated at: Sat, 31 Jul 2021 14:14:30 GMT